Grizzly Air Cargo 5353


PACV
Merle K Smith Airport
Cordova, Alaska, US
PANC
Ted Stevens Anchorage International Airport
Anchorage, Alaska, US

Activity Log

Date Flight Route Aircraft Duration
No Flights Yet

Route Details

Aircraft Information
Primary: Saab 340AF
Backup: Not Available
Route Data
Distance: 142nm
Sched. Duration: 0h 80m
Avg. Duration: 0h 00m (-80m)
Times Flown: 0
Recm'd Route: JOH
Planned Altitude: 16,000ft
Origin Wx: PACV 160805Z 11005KT 9SM -RA FEW018 BKN027 OVC048 04/03 A2976 RMK AO2 P0001 T00440028
Dest. Wx: PANC 160753Z 36003KT 10SM FEW045 SCT240 M05/M07 A2960 RMK AO2 SLP025 T10501072
Notes:

Financial History
Total Freight: 0lbs
Average Load: 0lbs/flt
Fuel Used: 0lbs
Avg. Fuel Used: 0lbs/flt
Fuel Expense: $0
Avg. Fuel Expense: $0
Avg. Fuel Cost: $0/lbs
Total Gross Income: $0
Pilot Pay: $0
Total Expenses: $0
Total Revenue: $0
Average Revenue: $0